• In Lithuania
  • List of Countries
  • For 7 days
  • Water Temperature
  • Satellite Maps
  • Weather Map
  • Weather Widgets
  • user-avatar
    Login

    Hourly Weather Ventyan

    Today, 20 November, Monday

    Time Temperature Precipitation Wind Pressure Humidity
    00:00 +26°C° 0 mm 1 mps 745 mmHg 82%
    01:00 +26°C° 0 mm 1 mps 745 mmHg 83%
    02:00 +23°C° 0 mm 0 mps 745 mmHg 84%
    03:00 +23°C° 0 mm 0 mps 745 mmHg 85%
    04:00 +23°C° 0 mm 0 mps 744 mmHg 85%
    05:00 +23°C° 0 mm 0 mps 745 mmHg 85%
    06:00 +23°C° 0 mm 0 mps 745 mmHg 85%
    07:00 +23°C° 0 mm 0 mps 745 mmHg 85%
    08:00 +27°C° 0 mm 1 mps 745 mmHg 78%
    09:00 +28°C° 0 mm 1 mps 746 mmHg 72%
    10:00 +30°C° 0 mm 2 mps 746 mmHg 66%
    11:00 +30°C° 0.2 mm 2 mps 745 mmHg 64%
    12:00 +31°C° 0.2 mm 3 mps 745 mmHg 63%
    13:00 +32°C° 0 mm 2 mps 744 mmHg 56%
    14:00 +32°C° 0.1 mm 2 mps 744 mmHg 57%
    15:00 +32°C° 0.1 mm 2 mps 743 mmHg 58%
    16:00 +32°C° 0.1 mm 2 mps 743 mmHg 59%
    17:00 +30°C° 0 mm 2 mps 743 mmHg 65%
    18:00 +28°C° 0 mm 2 mps 744 mmHg 72%
    19:00 +27°C° 0 mm 1 mps 744 mmHg 78%
    20:00 +26°C° 0 mm 1 mps 745 mmHg 80%
    21:00 +26°C° 0 mm 1 mps 745 mmHg 83%
    22:00 +25°C° 0 mm 1 mps 745 mmHg 85%
    23:00 +25°C° 0 mm 1 mps 745 mmHg 84%

    Tomorrow, 21 November, Tuesday

    Time Temperature Precipitation Wind Pressure Humidity
    00:00 +25°C° 0 mm 1 mps 745 mmHg 84%
    01:00 +25°C° 0 mm 1 mps 745 mmHg 83%
    02:00 +25°C° 0 mm 1 mps 745 mmHg 83%
    03:00 +23°C° 0 mm 0 mps 745 mmHg 84%
    04:00 +22°C° 0 mm 0 mps 745 mmHg 84%
    05:00 +22°C° 0 mm 0 mps 745 mmHg 83%
    06:00 +24°C° 0 mm 1 mps 745 mmHg 83%
    07:00 +24°C° 0 mm 1 mps 745 mmHg 83%
    08:00 +26°C° 0 mm 1 mps 746 mmHg 77%
    09:00 +27°C° 0 mm 1 mps 746 mmHg 70%
    10:00 +29°C° 0 mm 1 mps 747 mmHg 64%
    11:00 +30°C° 0 mm 1 mps 746 mmHg 60%
    12:00 +31°C° 0 mm 1 mps 745 mmHg 55%
    13:00 +32°C° 0 mm 1 mps 744 mmHg 51%
    14:00 +32°C° 0 mm 1 mps 744 mmHg 51%
    15:00 +32°C° 0 mm 1 mps 743 mmHg 52%
    16:00 +32°C° 0 mm 1 mps 742 mmHg 53%
    17:00 +30°C° 0 mm 1 mps 743 mmHg 58%
    18:00 +29°C° 0 mm 1 mps 743 mmHg 63%
    19:00 +27°C° 0 mm 1 mps 744 mmHg 68%
    20:00 +27°C° 0 mm 1 mps 744 mmHg 70%
    21:00 +24°C° 0 mm 0 mps 745 mmHg 71%
    22:00 +24°C° 0 mm 0 mps 746 mmHg 73%
    23:00 +23°C° 0 mm 0 mps 745 mmHg 75%

    Day after tomorrow, 22 November, Wednesday

    Time Temperature Precipitation Wind Pressure Humidity
    00:00 +25°C° 0 mm 1 mps 745 mmHg 76%
    01:00 +25°C° 0 mm 1 mps 745 mmHg 78%
    02:00 +24°C° 0 mm 1 mps 745 mmHg 80%
    03:00 +22°C° 0 mm 0 mps 744 mmHg 81%
    04:00 +21°C° 0 mm 0 mps 744 mmHg 83%
    05:00 +22°C° 0 mm 0 mps 744 mmHg 83%
    06:00 +22°C° 0 mm 0 mps 745 mmHg 83%
    07:00 +22°C° 0 mm 0 mps 745 mmHg 83%
    08:00 +26°C° 0 mm 1 mps 745 mmHg 75%
    09:00 +28°C° 0 mm 1 mps 746 mmHg 66%
    10:00 +30°C° 0 mm 1 mps 746 mmHg 58%
    11:00 +31°C° 0 mm 1 mps 745 mmHg 55%
    12:00 +32°C° 0 mm 1 mps 744 mmHg 52%
    13:00 +34°C° 0 mm 2 mps 743 mmHg 49%
    14:00 +34°C° 0 mm 2 mps 743 mmHg 51%
    15:00 +32°C° 0 mm 1 mps 742 mmHg 52%
    16:00 +32°C° 0 mm 1 mps 741 mmHg 53%
    17:00 +30°C° 0 mm 1 mps 742 mmHg 58%
    18:00 +29°C° 0 mm 1 mps 743 mmHg 64%
    19:00 +25°C° 0 mm 0 mps 743 mmHg 69%
    20:00 +25°C° 0 mm 0 mps 744 mmHg 70%
    21:00 +25°C° 0 mm 0 mps 745 mmHg 71%
    22:00 +26°C° 0 mm 1 mps 745 mmHg 72%
    23:00 +26°C° 0 mm 1 mps 745 mmHg 74%

    23 November, Thursday

    Time Temperature Precipitation Wind Pressure Humidity
    00:00 +26°C° 0 mm 1 mps 745 mmHg 75%
    01:00 +25°C° 0 mm 1 mps 745 mmHg 76%
    02:00 +25°C° 0 mm 1 mps 744 mmHg 78%
    03:00 +24°C° 0 mm 1 mps 744 mmHg 80%
    04:00 +22°C° 0 mm 0 mps 744 mmHg 82%
    05:00 +22°C° 0 mm 0 mps 744 mmHg 82%
    06:00 +22°C° 0 mm 0 mps 745 mmHg 82%
    07:00 +22°C° 0 mm 0 mps 745 mmHg 82%
    08:00 +26°C° 0 mm 1 mps 745 mmHg 75%
    09:00 +27°C° 0 mm 1 mps 746 mmHg 68%
    10:00 +29°C° 0 mm 2 mps 747 mmHg 61%
    11:00 +29°C° 0 mm 2 mps 746 mmHg 60%
    12:00 +30°C° 0 mm 2 mps 745 mmHg 58%
    13:00 +30°C° 0 mm 3 mps 744 mmHg 57%
    14:00 +30°C° 0 mm 3 mps 744 mmHg 58%
    15:00 +30°C° 0 mm 2 mps 743 mmHg 60%
    16:00 +29°C° 0 mm 2 mps 743 mmHg 61%
    17:00 +28°C° 0 mm 2 mps 744 mmHg 65%
    18:00 +27°C° 0 mm 2 mps 744 mmHg 69%
    19:00 +25°C° 0 mm 1 mps 745 mmHg 73%
    20:00 +25°C° 0 mm 1 mps 746 mmHg 73%
    21:00 +25°C° 0 mm 1 mps 746 mmHg 73%
    22:00 +24°C° 0 mm 1 mps 747 mmHg 73%
    23:00 +24°C° 0 mm 1 mps 747 mmHg 74%

    24 November, Friday

    Time Temperature Precipitation Wind Pressure Humidity
    00:00 +23°C° 0 mm 1 mps 746 mmHg 75%
    01:00 +23°C° 0 mm 1 mps 746 mmHg 77%
    02:00 +23°C° 0 mm 1 mps 746 mmHg 77%
    03:00 +22°C° 0 mm 1 mps 746 mmHg 78%
    04:00 +20°C° 0 mm 0 mps 745 mmHg 79%
    05:00 +20°C° 0 mm 0 mps 746 mmHg 79%
    06:00 +20°C° 0 mm 0 mps 746 mmHg 80%
    07:00 +20°C° 0 mm 0 mps 747 mmHg 80%
    08:00 +24°C° 0 mm 1 mps 747 mmHg 74%
    09:00 +25°C° 0 mm 1 mps 748 mmHg 69%
    10:00 +27°C° 0 mm 1 mps 748 mmHg 63%
    11:00 +28°C° 0 mm 2 mps 747 mmHg 59%
    12:00 +29°C° 0 mm 2 mps 746 mmHg 55%
    13:00 +30°C° 0 mm 2 mps 745 mmHg 51%
    14:00 +30°C° 0 mm 2 mps 745 mmHg 52%
    15:00 +30°C° 0 mm 2 mps 744 mmHg 54%
    16:00 +29°C° 0 mm 2 mps 744 mmHg 56%
    17:00 +28°C° 0 mm 1 mps 745 mmHg 60%
    18:00 +27°C° 0 mm 1 mps 745 mmHg 64%
    19:00 +25°C° 0 mm 1 mps 746 mmHg 68%
    20:00 +25°C° 0 mm 1 mps 746 mmHg 70%
    21:00 +24°C° 0 mm 1 mps 747 mmHg 71%
    22:00 +24°C° 0 mm 1 mps 747 mmHg 72%
    23:00 +23°C° 0 mm 1 mps 747 mmHg 73%

    25 November, Saturday

    Time Temperature Precipitation Wind Pressure Humidity
    00:00 +23°C° 0 mm 1 mps 747 mmHg 75%
    01:00 +22°C° 0 mm 1 mps 746 mmHg 76%
    02:00 +22°C° 0 mm 1 mps 746 mmHg 77%
    03:00 +21°C° 0 mm 1 mps 746 mmHg 78%
    04:00 +19°C° 0 mm 0 mps 746 mmHg 79%
    05:00 +19°C° 0 mm 0 mps 746 mmHg 79%
    06:00 +19°C° 0 mm 0 mps 747 mmHg 80%
    07:00 +19°C° 0 mm 0 mps 747 mmHg 80%
    08:00 +24°C° 0 mm 1 mps 748 mmHg 72%
    09:00 +26°C° 0 mm 1 mps 748 mmHg 65%
    10:00 +28°C° 0 mm 1 mps 748 mmHg 57%
    11:00 +30°C° 0 mm 1 mps 747 mmHg 54%
    12:00 +31°C° 0 mm 1 mps 747 mmHg 50%
    13:00 +32°C° 0 mm 1 mps 746 mmHg 47%
    14:00 +32°C° 0 mm 1 mps 745 mmHg 48%
    15:00 +32°C° 0 mm 1 mps 745 mmHg 48%
    16:00 +31°C° 0 mm 1 mps 745 mmHg 49%
    17:00 +30°C° 0 mm 1 mps 745 mmHg 54%
    18:00 +28°C° 0 mm 1 mps 746 mmHg 60%
    19:00 +24°C° 0 mm 0 mps 746 mmHg 66%
    20:00 +24°C° 0 mm 0 mps 747 mmHg 67%
    21:00 +26°C° 0 mm 1 mps 747 mmHg 68%
    22:00 +25°C° 0 mm 1 mps 748 mmHg 69%
    23:00 +25°C° 0 mm 1 mps 747 mmHg 72%
    Show more